| time (UTC) | temp F | wind direction | speed MPH | gust MPH | rain 1hr in | rain 24hr in | rain mn in | humidity % | barometer mb |
| 20260505125005 | 36 | 235 | 0.0 | 4.0 | 0.04 | 0.28 | 0.22 | 94 | 1010.3 |
| 20260505124505 | 36 | 11 | 1.0 | 4.0 | 0.04 | 0.28 | 0.22 | 94 | 1010.2 |
| 20260505124005 | 36 | 288 | 1.0 | 4.0 | 0.04 | 0.28 | 0.22 | 94 | 1010.3 |
| 20260505123504 | 36 | 224 | 0.0 | 3.0 | 0.04 | 0.27 | 0.21 | 94 | 1010.2 |
| 20260505123004 | 36 | 304 | 0.0 | 2.0 | 0.04 | 0.27 | 0.21 | 94 | 1010.0 |
| 20260505122503 | 36 | 227 | 0.0 | 2.0 | 0.03 | 0.26 | 0.20 | 94 | 1010.0 |
| 20260505122003 | 36 | 230 | 0.0 | 3.0 | 0.04 | 0.26 | 0.20 | 94 | 1010.0 |
| 20260505121503 | 36 | 210 | 0.0 | 3.0 | 0.03 | 0.25 | 0.19 | 94 | 1010.0 |
| 20260505121003 | 36 | 183 | 1.0 | 4.0 | 0.03 | 0.25 | 0.19 | 94 | 1010.0 |
| 20260505120501 | 36 | 360 | 0.0 | 4.0 | 0.04 | 0.25 | 0.19 | 94 | 1009.9 |
| 20260505120004 | 36 | 9 | 1.0 | 4.0 | 0.04 | 0.25 | 0.19 | 94 | 1009.8 |
| 20260505115501 | 36 | 50 | 1.0 | 4.0 | 0.05 | 0.25 | 0.19 | 93 | 1009.8 |
| 20260505115100 | 36 | 210 | 1.0 | 5.0 | 0.04 | 0.24 | 0.18 | 93 | 1009.8 |
| 20260505114601 | 36 | 40 | 1.0 | 5.0 | 0.05 | 0.24 | 0.18 | 93 | 1009.7 |
| 20260505114102 | 37 | 28 | 0.0 | 3.0 | 0.05 | 0.24 | 0.18 | 93 | 1009.4 |
| 20260505113558 | 37 | 9 | 0.0 | 4.0 | 0.05 | 0.23 | 0.17 | 93 | 1009.4 |
| 20260505113057 | 37 | 196 | 1.0 | 4.0 | 0.06 | 0.23 | 0.17 | 93 | 1009.5 |
| 20260505112556 | 37 | 227 | 0.0 | 5.0 | 0.06 | 0.23 | 0.17 | 93 | 1009.4 |
| 20260505112056 | 37 | 319 | 1.0 | 3.0 | 0.07 | 0.22 | 0.16 | 93 | 1009.3 |
| 20260505111556 | 37 | 29 | 0.0 | 5.0 | 0.08 | 0.22 | 0.16 | 93 | 1009.3 |
| 20260505111055 | 37 | 268 | 1.0 | 6.0 | 0.09 | 0.22 | 0.16 | 93 | 1009.0 |
| 20260505110553 | 37 | 27 | 1.0 | 6.0 | 0.08 | 0.21 | 0.15 | 93 | 1009.0 |
| 20260505102044 | 41 | 360 | 2.0 | 14.0 | 0.03 | 0.15 | 0.09 | 90 | 1008.4 |
| 20260505101543 | 41 | 360 | 3.0 | 11.0 | 0.02 | 0.14 | 0.08 | 90 | 1008.4 |
| 20260505101042 | 41 | 360 | 4.0 | 11.0 | 0.01 | 0.13 | 0.07 | 90 | 1008.3 |
| 20260505100540 | 42 | 360 | 2.0 | 12.0 | 0.02 | 0.13 | 0.07 | 91 | 1008.2 |
| 20260505100040 | 42 | 360 | 4.0 | 12.0 | 0.02 | 0.13 | 0.07 | 91 | 1008.0 |
| 20260505095538 | 42 | 360 | 4.0 | 10.0 | 0.02 | 0.13 | 0.07 | 91 | 1007.9 |
| 20260505095038 | 42 | 360 | 4.0 | 10.0 | 0.02 | 0.13 | 0.07 | 91 | 1007.9 |
| 20260505094538 | 42 | 360 | 2.0 | 11.0 | 0.02 | 0.13 | 0.07 | 91 | 1007.8 |
| 20260505094039 | 42 | 360 | 4.0 | 10.0 | 0.02 | 0.13 | 0.07 | 91 | 1007.6 |
| 20260505093537 | 42 | 360 | 5.0 | 10.0 | 0.03 | 0.13 | 0.07 | 91 | 1007.5 |
| 20260505093040 | 42 | 360 | 3.0 | 9.0 | 0.03 | 0.13 | 0.07 | 91 | 1007.6 |
| 20260505092535 | 42 | 360 | 3.0 | 9.0 | 0.03 | 0.13 | 0.07 | 91 | 1007.5 |
| 20260505092035 | 42 | 360 | 1.0 | 8.0 | 0.02 | 0.12 | 0.06 | 91 | 1007.4 |
| 20260505091535 | 42 | 360 | 1.0 | 9.0 | 0.02 | 0.12 | 0.06 | 90 | 1007.7 |
| 20260505091035 | 42 | 360 | 2.0 | 11.0 | 0.02 | 0.12 | 0.06 | 90 | 1007.6 |
| 20260505090533 | 42 | 360 | 3.0 | 11.0 | 0.01 | 0.11 | 0.05 | 90 | 1007.6 |
| 20260505090042 | 42 | 360 | 2.0 | 8.0 | 0.02 | 0.11 | 0.05 | 90 | 1007.6 |
| 20260505085532 | 42 | 360 | 4.0 | 11.0 | 0.02 | 0.11 | 0.05 | 90 | 1007.3 |
| 20260505085032 | 42 | 360 | 2.0 | 11.0 | 0.02 | 0.11 | 0.05 | 90 | 1007.3 |
| 20260505084532 | 42 | 360 | 4.0 | 9.0 | 0.02 | 0.11 | 0.05 | 91 | 1007.2 |
| 20260505084032 | 42 | 360 | 3.0 | 9.0 | 0.03 | 0.11 | 0.05 | 91 | 1007.1 |
| 20260505083530 | 42 | 360 | 3.0 | 9.0 | 0.03 | 0.10 | 0.04 | 92 | 1007.1 |
| 20260505083030 | 42 | 360 | 3.0 | 13.0 | 0.03 | 0.10 | 0.04 | 92 | 1007.0 |
| 20260505082530 | 42 | 360 | 3.0 | 13.0 | 0.03 | 0.10 | 0.04 | 92 | 1007.1 |
| 20260505082030 | 42 | 360 | 5.0 | 12.0 | 0.03 | 0.10 | 0.04 | 92 | 1007.1 |
| 20260505081533 | 43 | 360 | 5.0 | 14.0 | 0.04 | 0.10 | 0.04 | 92 | 1007.1 |
| 20260505081027 | 43 | 360 | 5.0 | 14.0 | 0.04 | 0.10 | 0.04 | 92 | 1007.0 |
| 20260505080526 | 44 | 360 | 2.0 | 6.0 | 0.04 | 0.10 | 0.04 | 92 | 1006.9 |
| 20260505080024 | 43 | 360 | 2.0 | 6.0 | 0.03 | 0.09 | 0.03 | 92 | 1006.9 |
| 20260505075523 | 44 | 360 | 2.0 | 11.0 | 0.03 | 0.09 | 0.03 | 92 | 1006.9 |
| 20260505075023 | 44 | 360 | 3.0 | 11.0 | 0.03 | 0.09 | 0.03 | 91 | 1007.1 |
| 20260505074522 | 44 | 360 | 2.0 | 6.0 | 0.03 | 0.09 | 0.03 | 91 | 1007.0 |
| 20260505074021 | 44 | 360 | 3.0 | 8.0 | 0.02 | 0.08 | 0.02 | 90 | 1007.1 |
| 20260505073519 | 45 | 360 | 3.0 | 8.0 | 0.01 | 0.07 | 0.01 | 90 | 1007.0 |
| 20260505073029 | 45 | 360 | 1.0 | 5.0 | 0.01 | 0.07 | 0.01 | 90 | 1007.0 |
| 20260505072523 | 45 | 360 | 1.0 | 5.0 | 0.01 | 0.07 | 0.01 | 89 | 1007.0 |
| 20260505072016 | 46 | 360 | 1.0 | 4.0 | 0.00 | 0.06 | 0.00 | 88 | 1007.0 |
| 20260505071519 | 47 | 360 | 1.0 | 5.0 | 0.00 | 0.06 | 0.00 | 89 | 1006.9 |
| 20260505071013 | 49 | 360 | 1.0 | 5.0 | 0.00 | 0.06 | 0.00 | 90 | 1006.7 |
| 20260505070513 | 49 | 360 | 1.0 | 3.0 | 0.00 | 0.06 | 0.00 | 91 | 1006.7 |
| 20260505070011 | 49 | 360 | 0.0 | 2.0 | 0.00 | 0.06 | 0.00 | 91 | 1006.7 |
| 20260505065509 | 49 | 360 | 0.0 | 2.0 | 0.00 | 0.06 | 0.00 | 91 | 1006.6 |
| 20260505065008 | 49 | 360 | 0.0 | 1.0 | 0.00 | 0.06 | 0.00 | 91 | 1006.6 |
| 20260505064518 | 49 | 360 | 0.0 | 1.0 | 0.00 | 0.06 | 0.00 | 90 | 1006.5 |
| 20260505064005 | 49 | 360 | 0.0 | 2.0 | 0.00 | 0.06 | 0.00 | 90 | 1006.4 |
| 20260505063503 | 49 | 360 | 0.0 | 3.0 | 0.00 | 0.06 | 0.00 | 90 | 1006.3 |
| 20260505063003 | 48 | 360 | 0.0 | 3.0 | 0.00 | 0.06 | 0.00 | 90 | 1006.1 |
| 20260505062503 | 49 | 360 | 1.0 | 3.0 | 0.00 | 0.06 | 0.00 | 90 | 1006.1 |
| 20260505062100 | 49 | 360 | 1.0 | 2.0 | 0.00 | 0.06 | 0.00 | 89 | 1006.2 |
| 20260505061608 | 49 | 360 | 0.0 | 1.0 | 0.00 | 0.06 | 0.00 | 90 | 1006.3 |
| 20260505061058 | 49 | 360 | 0.0 | 2.0 | 0.00 | 0.06 | 0.00 | 89 | 1006.2 |
| 20260505060557 | 49 | 360 | 0.0 | 2.0 | 0.00 | 0.06 | 0.00 | 89 | 1006.1 |
| 20260505060057 | 49 | 360 | 0.0 | 1.0 | 0.00 | 0.06 | 0.00 | 89 | 1006.0 |
| 20260505055557 | 48 | 360 | 0.0 | 1.0 | 0.00 | 0.06 | 0.06 | 89 | 1005.9 |
| 20260505055056 | 48 | 360 | 0.0 | 1.0 | 0.00 | 0.06 | 0.06 | 89 | 1005.9 |
| 20260505054625 | 48 | 360 | 0.0 | 3.0 | 0.00 | 0.06 | 0.06 | 89 | 1005.8 |
| 20260505054055 | 49 | 360 | 1.0 | 2.0 | 0.00 | 0.06 | 0.06 | 89 | 1005.7 |
| 20260505053555 | 49 | 360 | 0.0 | 2.0 | 0.00 | 0.06 | 0.06 | 89 | 1005.7 |
| 20260505053107 | 48 | 360 | 0.0 | 2.0 | 0.00 | 0.06 | 0.06 | 89 | 1005.7 |
| 20260505052556 | 48 | 360 | 0.0 | 2.0 | 0.00 | 0.06 | 0.06 | 89 | 1005.7 |
| 20260505052055 | 48 | 360 | 0.0 | 2.0 | 0.00 | 0.06 | 0.06 | 89 | 1005.9 |
| 20260505051555 | 48 | 360 | 0.0 | 2.0 | 0.00 | 0.06 | 0.06 | 89 | 1005.7 |
| 20260505051055 | 48 | 360 | 0.0 | 2.0 | 0.00 | 0.06 | 0.06 | 89 | 1005.8 |
| 20260505050553 | 48 | 360 | 0.0 | 3.0 | 0.00 | 0.06 | 0.06 | 89 | 1005.8 |
| 20260505041558 | 49 | 360 | 2.0 | 5.0 | 0.03 | 0.06 | 0.06 | 90 | 1005.8 |
| 20260505041051 | 49 | 360 | 1.0 | 4.0 | 0.03 | 0.06 | 0.06 | 90 | 1005.9 |
| 20260505040550 | 49 | 360 | 0.0 | 3.0 | 0.04 | 0.06 | 0.06 | 90 | 1005.7 |
| 20260505040050 | 49 | 360 | 0.0 | 5.0 | 0.05 | 0.06 | 0.06 | 90 | 1005.7 |
| 20260505035549 | 49 | 360 | 0.0 | 5.0 | 0.05 | 0.06 | 0.06 | 89 | 1005.5 |
| 20260505035048 | 49 | 360 | 1.0 | 5.0 | 0.05 | 0.05 | 0.05 | 89 | 1005.5 |
| 20260505034548 | 49 | 360 | 1.0 | 5.0 | 0.05 | 0.05 | 0.05 | 88 | 1005.5 |
| 20260505034049 | 49 | 360 | 2.0 | 5.0 | 0.04 | 0.04 | 0.04 | 88 | 1005.6 |
| 20260505033549 | 49 | 360 | 2.0 | 8.0 | 0.03 | 0.03 | 0.03 | 88 | 1005.7 |
| 20260505033049 | 49 | 360 | 2.0 | 5.0 | 0.03 | 0.03 | 0.03 | 87 | 1005.6 |
| 20260505032548 | 49 | 360 | 1.0 | 5.0 | 0.03 | 0.03 | 0.03 | 87 | 1005.5 |
| 20260505032045 | 49 | 360 | 1.0 | 4.0 | 0.03 | 0.03 | 0.03 | 87 | 1005.4 |
| 20260505031604 | 49 | 360 | 1.0 | 5.0 | 0.03 | 0.03 | 0.03 | 86 | 1005.4 |
| 20260505030514 | 50 | 360 | 2.0 | 6.0 | 0.03 | 0.03 | 0.03 | 83 | 1005.3 |
| 20260505030015 | 50 | 360 | 2.0 | 6.0 | 0.02 | 0.02 | 0.02 | 81 | 1005.1 |
| 20260505025513 | 51 | 360 | 2.0 | 6.0 | 0.01 | 0.01 | 0.01 | 79 | 1005.0 |
| 20260505025014 | 51 | 360 | 2.0 | 6.0 | 0.01 | 0.01 | 0.01 | 77 | 1004.8 |
| 20260505024519 | 52 | 360 | 1.0 | 4.0 | 0.00 | 0.00 | 0.00 | 76 | 1004.6 |
| 20260505024009 | 52 | 360 | 0.0 | 4.0 | 0.00 | 0.00 | 0.00 | 75 | 1004.6 |
| 20260505023510 | 52 | 360 | 0.0 | 2.0 | 0.00 | 0.00 | 0.00 | 73 | 1004.6 |
| 20260505023011 | 52 | 360 | 1.0 | 2.0 | 0.00 | 0.00 | 0.00 | 71 | 1004.6 |
| 20260505022507 | 53 | 360 | 0.0 | 3.0 | 0.00 | 0.00 | 0.00 | 69 | 1004.4 |
| 20260505022008 | 53 | 360 | 1.0 | 3.0 | 0.00 | 0.00 | 0.00 | 69 | 1004.4 |
| 20260505021509 | 53 | 360 | 1.0 | 3.0 | 0.00 | 0.00 | 0.00 | 68 | 1004.3 |
| 20260505021011 | 53 | 360 | 0.0 | 3.0 | 0.00 | 0.00 | 0.00 | 66 | 1004.3 |
| 20260505020505 | 53 | 360 | 1.0 | 4.0 | 0.00 | 0.00 | 0.00 | 65 | 1004.4 |
| 20260505020013 | 53 | 360 | 2.0 | 4.0 | 0.00 | 0.00 | 0.00 | 66 | 1004.4 |
| 20260505015508 | 54 | 360 | 1.0 | 5.0 | 0.00 | 0.00 | 0.00 | 66 | 1004.3 |
| 20260505015004 | 54 | 360 | 1.0 | 5.0 | 0.00 | 0.00 | 0.00 | 65 | 1004.3 |
| 20260505014505 | 54 | 360 | 1.0 | 5.0 | 0.00 | 0.00 | 0.00 | 65 | 1004.0 |
| 20260505014004 | 54 | 360 | 2.0 | 5.0 | 0.00 | 0.00 | 0.00 | 65 | 1003.9 |
| 20260505013504 | 54 | 360 | 2.0 | 6.0 | 0.00 | 0.00 | 0.00 | 64 | 1003.8 |
| 20260505013004 | 54 | 360 | 3.0 | 8.0 | 0.00 | 0.00 | 0.00 | 63 | 1003.8 |
| 20260505012504 | 55 | 360 | 3.0 | 8.0 | 0.00 | 0.00 | 0.00 | 62 | 1003.9 |
| 20260505012004 | 55 | 254 | 2.0 | 7.0 | 0.00 | 0.00 | 0.00 | 62 | 1003.7 |
| 20260505011503 | 55 | 205 | 3.0 | 7.0 | 0.00 | 0.00 | 0.00 | 61 | 1003.7 |
| 20260505011004 | 56 | 194 | 2.0 | 9.0 | 0.00 | 0.00 | 0.00 | 60 | 1003.9 |
| 20260505010503 | 57 | 275 | 2.0 | 8.0 | 0.00 | 0.00 | 0.00 | 56 | 1003.6 |
| 20260505010003 | 58 | 224 | 2.0 | 6.0 | 0.00 | 0.00 | 0.00 | 54 | 1003.5 |
| 20260505005503 | 58 | 250 | 1.0 | 4.0 | 0.00 | 0.00 | 0.00 | 52 | 1003.4 |
| 20260505005002 | 58 | 262 | 0.0 | 3.0 | 0.00 | 0.00 | 0.00 | 52 | 1003.3 |
| 20260505004502 | 59 | 228 | 1.0 | 6.0 | 0.00 | 0.00 | 0.00 | 52 | 1003.4 |
| 20260505004103 | 59 | 189 | 1.0 | 6.0 | 0.00 | 0.00 | 0.00 | 52 | 1003.4 |
| 20260505003502 | 59 | 248 | 1.0 | 4.0 | 0.00 | 0.00 | 0.00 | 52 | 1003.4 |
| 20260505003001 | 59 | 81 | 1.0 | 5.0 | 0.00 | 0.00 | 0.00 | 51 | 1003.3 |
| 20260505002501 | 59 | 223 | 1.0 | 5.0 | 0.00 | 0.00 | 0.00 | 51 | 1003.3 |
| 20260505002003 | 59 | 275 | 0.0 | 3.0 | 0.00 | 0.00 | 0.00 | 52 | 1003.2 |
| 20260505001501 | 59 | 107 | 1.0 | 4.0 | 0.00 | 0.00 | 0.00 | 52 | 1003.0 |
| 20260505001001 | 59 | 348 | 0.0 | 4.0 | 0.00 | 0.00 | 0.00 | 52 | 1003.1 |
| 20260505000600 | 59 | 67 | 1.0 | 3.0 | 0.00 | 0.00 | 0.00 | 51 | 1003.2 |
| 20260505000117 | 59 | 82 | 1.0 | 6.0 | 0.00 | 0.00 | 0.00 | 51 | 1003.0 |
| 20260504235600 | 59 | 84 | 2.0 | 6.0 | 0.00 | 0.00 | 0.00 | 50 | 1003.0 |
| 20260504235100 | 59 | 348 | 1.0 | 4.0 | 0.00 | 0.00 | 0.00 | 51 | 1003.0 |
| 20260504234600 | 59 | 259 | 1.0 | 4.0 | 0.00 | 0.00 | 0.00 | 52 | 1002.9 |
| 20260504234100 | 58 | 281 | 1.0 | 5.0 | 0.00 | 0.00 | 0.00 | 55 | 1002.9 |
| 20260504233559 | 58 | 270 | 1.0 | 5.0 | 0.00 | 0.00 | 0.00 | 58 | 1003.0 |
| 20260504233101 | 58 | 275 | 2.0 | 7.0 | 0.00 | 0.00 | 0.00 | 59 | 1003.0 |
| 20260504232600 | 59 | 276 | 2.0 | 9.0 | 0.00 | 0.00 | 0.00 | 55 | 1003.0 |
| 20260504232100 | 61 | 222 | 2.0 | 9.0 | 0.00 | 0.00 | 0.00 | 52 | 1002.7 |
| 20260504231559 | 61 | 249 | 2.0 | 7.0 | 0.00 | 0.00 | 0.00 | 49 | 1002.9 |
| 20260504231058 | 61 | 229 | 3.0 | 7.0 | 0.00 | 0.00 | 0.00 | 47 | 1002.7 |
| 20260504230558 | 61 | 244 | 1.0 | 6.0 | 0.00 | 0.00 | 0.00 | 47 | 1002.6 |
| 20260504230107 | 61 | 233 | 2.0 | 5.0 | 0.00 | 0.00 | 0.00 | 46 | 1002.5 |
| 20260504225557 | 62 | 217 | 1.0 | 4.0 | 0.00 | 0.00 | 0.00 | 44 | 1002.5 |
| 20260504225057 | 62 | 209 | 2.0 | 5.0 | 0.00 | 0.00 | 0.00 | 42 | 1002.5 |
| 20260504224558 | 62 | 263 | 2.0 | 5.0 | 0.00 | 0.00 | 0.00 | 41 | 1002.3 |
| 20260504224057 | 63 | 243 | 1.0 | 4.0 | 0.00 | 0.00 | 0.00 | 39 | 1002.1 |
| 20260504223557 | 63 | 251 | 1.0 | 4.0 | 0.00 | 0.00 | 0.00 | 39 | 1001.9 |
| 20260504223104 | 64 | 280 | 1.0 | 4.0 | 0.00 | 0.00 | 0.00 | 37 | 1001.8 |
| 20260504222558 | 64 | 30 | 0.0 | 5.0 | 0.00 | 0.00 | 0.00 | 37 | 1001.7 |
| 20260504222056 | 64 | 31 | 2.0 | 6.0 | 0.00 | 0.00 | 0.00 | 36 | 1001.7 |
| 20260504221604 | 64 | 18 | 3.0 | 8.0 | 0.00 | 0.00 | 0.00 | 36 | 1001.3 |
| 20260504221056 | 64 | 40 | 2.0 | 8.0 | 0.00 | 0.00 | 0.00 | 37 | 1001.2 |
| 20260504220556 | 63 | 348 | 2.0 | 8.0 | 0.00 | 0.00 | 0.00 | 37 | 1001.1 |
| 20260504220059 | 63 | 38 | 3.0 | 9.0 | 0.00 | 0.00 | 0.00 | 40 | 1001.1 |
| 20260504215557 | 63 | 11 | 3.0 | 9.0 | 0.00 | 0.00 | 0.00 | 40 | 1001.2 |
| 20260504215054 | 64 | 307 | 3.0 | 7.0 | 0.00 | 0.00 | 0.00 | 40 | 1001.3 |
| 20260504214557 | 65 | 136 | 2.0 | 9.0 | 0.00 | 0.00 | 0.00 | 42 | 1001.5 |
| 20260504214054 | 64 | 101 | 2.0 | 10.0 | 0.00 | 0.00 | 0.00 | 43 | 1001.7 |
| 20260504213553 | 63 | 334 | 3.0 | 6.0 | 0.00 | 0.00 | 0.00 | 40 | 1001.9 |
| 20260504213154 | 62 | 196 | 2.0 | 12.0 | 0.00 | 0.00 | 0.00 | 44 | 1002.0 |
| 20260504212553 | 63 | 243 | 4.0 | 12.0 | 0.00 | 0.00 | 0.00 | 47 | 1002.1 |
| 20260504212055 | 63 | 330 | 2.0 | 11.0 | 0.00 | 0.00 | 0.00 | 42 | 1002.1 |
| 20260504211552 | 61 | 269 | 2.0 | 5.0 | 0.00 | 0.00 | 0.00 | 48 | 1002.3 |
| 20260504211052 | 60 | 225 | 2.0 | 5.0 | 0.00 | 0.00 | 0.00 | 50 | 1002.6 |
| 20260504210555 | 60 | 224 | 1.0 | 10.0 | 0.00 | 0.00 | 0.00 | 53 | 1002.5 |
| 20260504210053 | 61 | 209 | 5.0 | 11.0 | 0.00 | 0.00 | 0.00 | 44 | 1002.4 |
| 20260504205552 | 62 | 98 | 3.0 | 11.0 | 0.00 | 0.00 | 0.00 | 42 | 1002.2 |
| 20260504205052 | 64 | 105 | 3.0 | 10.0 | 0.00 | 0.00 | 0.00 | 40 | 1002.1 |
| 20260504204550 | 65 | 212 | 2.0 | 10.0 | 0.00 | 0.00 | 0.00 | 30 | 1001.8 |
| 20260504204050 | 66 | 172 | 3.0 | 10.0 | 0.00 | 0.00 | 0.00 | 28 | 1001.5 |
| 20260504203553 | 66 | 238 | 3.0 | 12.0 | 0.00 | 0.00 | 0.00 | 28 | 1001.1 |
| 20260504203100 | 67 | 19 | 4.0 | 14.0 | 0.00 | 0.00 | 0.00 | 28 | 1000.7 |
| 20260504202549 | 68 | 249 | 6.0 | 14.0 | 0.00 | 0.00 | 0.00 | 26 | 1000.2 |
| 20260504202049 | 70 | 360 | 3.0 | 14.0 | 0.00 | 0.00 | 0.00 | 25 | 1000.2 |
| 20260504201550 | 72 | 12 | 2.0 | 8.0 | 0.00 | 0.00 | 0.00 | 21 | 1000.3 |
| 20260504201050 | 72 | 9 | 3.0 | 8.0 | 0.00 | 0.00 | 0.00 | 22 | 1000.5 |
| 20260504200548 | 72 | 14 | 2.0 | 9.0 | 0.00 | 0.00 | 0.00 | 23 | 1000.4 |
| 20260504200048 | 72 | 360 | 3.0 | 9.0 | 0.00 | 0.00 | 0.00 | 24 | 1000.4 |
| 20260504195548 | 73 | 13 | 4.0 | 11.0 | 0.00 | 0.00 | 0.00 | 24 | 1000.5 |
| 20260504195047 | 74 | 13 | 3.0 | 11.0 | 0.00 | 0.00 | 0.00 | 23 | 1000.4 |
| 20260504194548 | 74 | 17 | 3.0 | 8.0 | 0.00 | 0.00 | 0.00 | 22 | 1000.3 |
| 20260504194047 | 74 | 15 | 3.0 | 8.0 | 0.00 | 0.00 | 0.00 | 22 | 1000.4 |
| 20260504193546 | 74 | 14 | 2.0 | 6.0 | 0.00 | 0.00 | 0.00 | 21 | 1000.3 |
| 20260504193046 | 74 | 16 | 2.0 | 8.0 | 0.00 | 0.00 | 0.00 | 21 | 1000.3 |
| 20260504192545 | 74 | 13 | 3.0 | 9.0 | 0.00 | 0.00 | 0.00 | 21 | 1000.3 |
| 20260504192045 | 74 | 16 | 3.0 | 10.0 | 0.00 | 0.00 | 0.00 | 21 | 1000.3 |
| 20260504191545 | 75 | 19 | 3.0 | 10.0 | 0.00 | 0.00 | 0.00 | 19 | 1000.3 |
| 20260504191044 | 76 | 219 | 4.0 | 10.0 | 0.00 | 0.00 | 0.00 | 20 | 1000.2 |
| 20260504190543 | 77 | 235 | 3.0 | 10.0 | 0.00 | 0.00 | 0.00 | 20 | 1000.2 |
| 20260504190042 | 77 | 211 | 3.0 | 10.0 | 0.00 | 0.00 | 0.00 | 19 | 1000.4 |
| 20260504185540 | 76 | 223 | 3.0 | 9.0 | 0.00 | 0.00 | 0.00 | 20 | 1000.4 |
| 20260504185039 | 76 | 191 | 4.0 | 9.0 | 0.00 | 0.00 | 0.00 | 22 | 1000.4 |
| 20260504184538 | 75 | 205 | 4.0 | 11.0 | 0.00 | 0.00 | 0.00 | 21 | 1000.6 |
| 20260504184037 | 74 | 217 | 4.0 | 10.0 | 0.00 | 0.00 | 0.00 | 23 | 1000.6 |
| 20260504183537 | 73 | 239 | 4.0 | 9.0 | 0.00 | 0.00 | 0.00 | 23 | 1000.7 |
| 20260504183036 | 73 | 360 | 3.0 | 9.0 | 0.00 | 0.00 | 0.00 | 24 | 1000.9 |
| 20260504182534 | 73 | 252 | 5.0 | 10.0 | 0.00 | 0.00 | 0.00 | 23 | 1000.9 |
| 20260504182033 | 73 | 188 | 4.0 | 10.0 | 0.00 | 0.00 | 0.00 | 23 | 1001.1 |
| 20260504181534 | 74 | 201 | 3.0 | 16.0 | 0.00 | 0.00 | 0.00 | 23 | 1001.2 |
| 20260504181032 | 74 | 232 | 4.0 | 10.0 | 0.00 | 0.00 | 0.00 | 23 | 1001.3 |
| 20260504180532 | 74 | 233 | 6.0 | 10.0 | 0.00 | 0.00 | 0.00 | 22 | 1001.4 |
| 20260504180030 | 74 | 190 | 3.0 | 9.0 | 0.00 | 0.00 | 0.00 | 25 | 1001.5 |
| 20260504175529 | 73 | 199 | 3.0 | 8.0 | 0.00 | 0.00 | 0.00 | 24 | 1001.6 |
| 20260504175028 | 73 | 207 | 3.0 | 9.0 | 0.00 | 0.00 | 0.00 | 26 | 1001.8 |
| 20260504174527 | 72 | 227 | 5.0 | 9.0 | 0.00 | 0.00 | 0.00 | 25 | 1001.9 |
| 20260504174026 | 71 | 201 | 4.0 | 13.0 | 0.00 | 0.00 | 0.00 | 26 | 1001.9 |
| 20260504173525 | 71 | 215 | 5.0 | 13.0 | 0.00 | 0.00 | 0.00 | 25 | 1001.9 |
| 20260504173123 | 70 | 205 | 5.0 | 13.0 | 0.00 | 0.00 | 0.00 | 26 | 1001.9 |
| 20260504172526 | 70 | 220 | 5.0 | 20.0 | 0.00 | 0.00 | 0.00 | 26 | 1001.8 |
| 20260504172024 | 70 | 266 | 6.0 | 10.0 | 0.00 | 0.00 | 0.00 | 26 | 1001.9 |
| 20260504171522 | 70 | 268 | 3.0 | 10.0 | 0.00 | 0.00 | 0.00 | 26 | 1001.8 |
| 20260504171021 | 70 | 201 | 4.0 | 11.0 | 0.00 | 0.00 | 0.00 | 27 | 1001.9 |
| 20260504170523 | 69 | 241 | 4.0 | 11.0 | 0.00 | 0.00 | 0.00 | 27 | 1002.0 |
| 20260504151057 | 62 | 213 | 2.0 | 4.0 | 0.00 | 0.00 | 0.00 | 35 | 1002.4 |
| 20260504150555 | 61 | 218 | 2.0 | 5.0 | 0.00 | 0.00 | 0.00 | 35 | 1002.4 |
| 20260504141042 | 51 | 141 | 0.0 | 2.0 | 0.00 | 0.00 | 0.00 | 51 | 1002.7 |
| 20260504140545 | 50 | 150 | 0.0 | 2.0 | 0.00 | 0.00 | 0.00 | 51 | 1002.7 |
| 20260504130541 | 45 | 360 | 0.0 | 2.0 | 0.00 | 0.00 | 0.00 | 58 | 1002.8 |